GAOFEN-6

Last updated on Mon Feb 16 2026 00:02:31 GMT+0000 (Coordinated Universal Time)

1 43484U 18048A 26046.63672361 .00001089 00000+0 16305-3 0 9991 2 43484 97.7927 113.6914 0011460 204.8307 155.2353 14.76556955415453
UTC large
Height (km)
Speed (km/s)
/
Latitude / Longitude
Inclination (degrees)
Orbital Period (minutes)
Azimuth
Elevation
Range (km)
Doppler Factor

Next 0 passes for location: London (51.5072 / 0.1276)

Sorry there are no passes over London.